Weather in Barra Mansa

Brazil     22°33′08″S   44°09′41″W
temp.,
°C
wind,
m/s
gust,
m/s
humid.,
%
clouds,
%
prec.,
mm/h
press.,
hPa
HPBL,
m
11 april, sun
sun1100:00+15w01870 0.0 101711
03:00+14nw11910 0.0 101611
06:00+13wnw01930 0.0 101610
09:00+20nnw11710 0.0 1018321
12:00+26nnw11530 0.0 1016753
15:00+27sw01480 0.0 1013689
18:00+21sw11700 0.0 101411
21:00+18wnw11860 0.0 101611
12 april, mon
mon1200:00+16wnw11870 0.0 101611
03:00+15w11850 0.0 101511
06:00+14wnw11860 0.0 101610
09:00+21nw11640 0.0 1016256
12:00+28w12490 0.0 1014575
15:00+29ssw13420 0.0 10131284
18:00+20se23840 0.0 101544
21:00+17e019628 0.0 101911
13 april, tue
tue1300:00+18w119359 0.0 101933
03:00+18wsw129150 0.0 101840
06:00+17wnw119293 0.1 101833
09:00+18ese0093100 0.8 102053
12:00+19ene019597 0.9 102083
15:00+20ese009274 1.3 1018180
18:00+19ese2397100 0.6 1019172
21:00+18e249797 1.3 1020231
14 april, wed
wed1400:00+18ene1197100 0.3 102056
03:00+17ene1197100 0.4 101826
06:00+17e1197100 0.1 101923
09:00+19ene129298 0.3 1020250
12:00+22ese127785 0.3 1019727
15:00+23se337097 0.4 1017964
18:00+19e258379 0.2 1018174
21:00+18ne1183100 0.2 102049
15 april, thu
thu1500:00+18n0184100 0.0 102015
03:00+17w018693 0.0 101918
06:00+16wsw119238 0.0 101913
09:00+20ne017785 0.0 1020500
12:00+25ene126199 0.0 10181234
15:00+25ese225989 0.0 10151279
18:00+20ese1277100 0.2 101732
21:00+19e118677 0.2 101831